Flag for Pakistan Weather past 2 weeks in Peshawar, Pakistan

Now
93 °F

Extremely hot.


Feels Like: 110 °F
Forecast: 80 / 100 °F
Wind: N/A

Location: Peshawar Airport

Current Time: Jul 30, 2014 at 6:52:05 PM

Latest Report: Jul 30, 2014 at 6:00 PM


Visibility: N/A

Pressure: 29.50 "Hg

Humidity: 63%

Dew point: 79 °F

Location of PeshawarLocation

Historic Weather in Peshawar — Graph

°F

Peshawar temperature yesterday

Maximum temperature yesterday: 91 °F (at 4:00 PM)
Minimum temperature yesterday: 79 °F (at 1:00 AM)
Average temperature yesterday: 84 °F

Past Weeks' High & Low Weather Summary

 TemperatureHumidityPressure
High106 °F (Jul 21, 4:00 PM)100% (Jul 29, 11:00 AM)29.71 "Hg (Jul 29, 11:00 AM)
Low77 °F (Jul 17, 9:00 AM)36% (Jul 21, 4:00 PM)29.33 "Hg (Jul 15, 6:00 PM)
Average88 °F67%29.50 "Hg
* Reported Jul 15 5:00 PM — Jul 30 5:00 PM, Peshawar, Weather by CustomWeather, © 2014

Note: Actual official high and low records may vary slightly from our data, if they occured in-between our weather recording intervals... More about our weather records

Advertising

Peshawar weather history for previous 24 hours

 ConditionsComfort  
Time TempWeatherWind HumidityBarometerVisibility
5:00 PM
Jul 30
97 °FExtremely hot.N/A56%29.50 "HgN/A
4:00 PM97 °FExtremely hot.N/A56%29.53 "HgN/A
3:00 PM95 °FExtremely hot.N/A56%29.56 "HgN/A
2:00 PM95 °FScattered clouds.9 mph56%29.59 "Hg3 mi
1:00 PM93 °FScattered clouds.9 mph59%29.62 "Hg3 mi
12:00 PM91 °FScattered clouds.9 mph63%29.62 "Hg3 mi
11:00 AM90 °FScattered clouds.5 mph67%29.65 "Hg3 mi
10:00 AM88 °FBroken clouds.5 mph70%29.65 "Hg2 mi
9:00 AM84 °FBroken clouds.5 mph74%29.65 "Hg2 mi
8:00 AM82 °FBroken clouds.5 mph74%29.65 "Hg2 mi
7:00 AM81 °FBroken clouds.5 mph79%29.62 "Hg2 mi
6:00 AM81 °FBroken clouds.5 mph79%29.62 "Hg2 mi
5:00 AM81 °FPassing clouds.7 mph79%29.62 "Hg2 mi
4:00 AM81 °FHaze.7 mph79%29.59 "Hg2 mi
3:00 AM81 °FPassing clouds.5 mph79%29.59 "Hg2 mi
2:00 AM81 °FWarm.N/A79%29.59 "HgN/A
1:00 AM82 °FWarm.N/A74%29.59 "HgN/A
12:00 AM84 °FWarm.N/A70%29.59 "HgN/A
11:00 PM
Jul 29
84 °FWarm.N/A70%29.59 "HgN/A
10:00 PM84 °FWarm.N/A70%29.59 "HgN/A
9:00 PM84 °FWarm.N/A70%29.59 "HgN/A
8:00 PM86 °FWarm.N/A70%29.56 "HgN/A
7:00 PM88 °FBroken clouds.12 mph66%29.56 "Hg2 mi
6:00 PM90 °FBroken clouds.9 mph63%29.53 "Hg3 mi
Weather by CustomWeather, © 2014

See weather overviewHow to use our weather pages